User: anonymous   Login
Location: Unspecified
(0.0000°N, 0.0000°E)
Time: 14:56:14
(UTC+00:00)
Language:

USA 234 - Orbit

View from above orbital plane
View from above orbital plane
View from above satellite
View from above satellite

Ground track
Ground track

The orbit data is extracted from the following two-line orbital elements,

1 38109U 12014A   18261.79535305 0.00000000  00000-0  00000-0 0    07
2 38109 122.9956 338.4222 0004000 186.3594 173.6406 13.41413739    04
Epoch (UTC): 18 September 2018 19:05:18
Eccentricity: 0.0004000
inclination: 122.9956°
perigee height: 1101 km
apogee height: 1107 km
right ascension of ascending node: 338.4222°
argument of perigee: 186.3594°
revolutions per day: 13.41413739
mean anomaly at epoch: 173.6406°
orbit number at epoch: 0

The dashed part of the orbit path shows where the satellite is in the earth's shadow,  

DLR